EW5835 Weather Reports


Display with metric or nautical units.
time (UTC)temp
F
wind
direction
speed
MPH
gust
MPH
rain 1hr
in
rain 24hr
in
rain mn
in
humidity
%
barometer
mb
20260502130630 47 76 0.0 0.0 0.00 1.63 0.29 77 1013.0
20260502130131 46 310 0.0 0.0 0.00 1.63 0.29 82 1013.0
20260502123630 45 330 0.0 0.0 0.00 1.63 0.29 85 1012.8
20260502123128 45 69 0.0 0.0 0.00 1.63 0.29 84 1012.7
20260502122628 44 24 0.0 0.0 0.00 1.63 0.29 88 1012.7
20260502122129 43 0 0.0 0.0 0.00 1.63 0.29 88 1012.8
20260502121628 43 120 0.0 0.0 0.00 1.63 0.29 88 1012.8
20260502121126 44 252 0.0 0.0 0.00 1.63 0.29 89 1012.8
20260502120632 44 106 0.0 0.0 0.00 1.63 0.29 92 1012.8
20260502120628 43 354 0.0 0.0 0.00 1.63 0.29 90 1012.8
20260502115629 43 103 0.0 0.0 0.00 1.63 0.29 92 1012.7
20260502115126 43 85 0.0 0.0 0.00 1.63 0.29 92 1012.6
20260502114627 43 90 0.0 0.0 0.00 1.63 0.29 94 1012.6
20260502114126 43 17 0.0 0.0 0.00 1.63 0.29 94 1012.7
20260502113626 43 254 0.0 0.0 0.00 1.63 0.29 94 1012.8
20260502113127 43 200 0.0 0.0 0.00 1.63 0.29 94 1012.6
20260502112627 43 214 0.0 0.0 0.00 1.63 0.29 94 1012.5
20260502112130 43 226 0.0 0.0 0.00 1.63 0.29 95 1012.2
20260502112126 43 271 0.0 0.0 0.00 1.63 0.29 95 1012.3
20260502111130 43 268 0.0 0.0 0.00 1.63 0.29 95 1011.9
20260502111126 43 238 0.0 0.0 0.00 1.63 0.29 95 1012.2
20260502110125 43 265 0.0 0.0 0.00 1.63 0.29 95 1011.9
20260502105625 43 231 0.0 0.0 0.00 1.63 0.29 95 1011.9
20260502105125 44 305 0.0 0.0 0.00 1.63 0.29 96 1011.8
20260502104625 44 226 0.0 0.0 0.00 1.63 0.29 96 1011.7
20260502104124 44 141 0.0 0.0 0.00 1.63 0.29 96 1011.8
20260502103625 44 207 0.0 0.0 0.00 1.63 0.29 96 1012.0
20260502103214 44 252 0.0 0.0 0.00 1.63 0.29 96 1011.7
20260502103143 44 240 0.0 0.0 0.00 1.63 0.29 96 1011.9
20260502103126 44 228 0.0 0.0 0.00 1.63 0.29 96 1012.1
20260502101628 44 252 0.0 0.0 0.00 1.63 0.29 96 1011.3
20260502101623 44 252 0.0 0.0 0.00 1.63 0.29 96 1011.5
20260502100624 44 252 0.0 0.0 0.00 1.63 0.29 96 1011.3
20260502100123 44 252 0.0 0.0 0.00 1.63 0.29 96 1011.3
20260502091126 44 93 0.0 0.0 0.00 1.63 0.29 96 1011.0
20260502091120 44 94 0.0 0.0 0.00 1.63 0.29 96 1011.0
20260502090122 44 93 0.0 0.0 0.00 1.63 0.29 96 1011.1
20260502071118 45 93 0.0 0.0 0.04 1.62 0.28 95 1011.5
20260502070618 45 103 0.0 0.0 0.07 1.62 0.28 95 1011.7
20260502070118 45 103 0.0 0.0 0.07 1.61 0.27 95 1011.8
20260502065618 45 103 0.0 0.0 0.08 1.61 0.27 95 1011.8
20260502065116 45 103 0.0 0.0 0.09 1.61 0.27 95 1011.9
20260502064617 45 243 0.0 0.0 0.10 1.61 0.27 95 1012.0
20260502064116 45 243 0.0 0.0 0.10 1.61 0.27 95 1012.1
20260502063617 45 243 0.0 0.0 0.09 1.60 0.26 95 1012.1
20260502063116 45 243 0.0 0.0 0.09 1.60 0.26 95 1012.1
20260502062615 45 257 0.0 0.0 0.10 1.60 0.26 95 1012.2
20260502062121 45 257 0.0 0.0 0.10 1.59 0.25 95 1012.1
20260502062116 45 257 0.0 0.0 0.10 1.59 0.25 95 1012.2
20260502061728 45 257 0.0 0.0 0.09 1.58 0.24 95 1012.2
20260502061232 45 257 0.0 0.0 0.07 1.55 0.21 95 1012.4
20260502060729 45 257 0.0 0.0 0.06 1.54 0.20 95 1012.5
20260502055616 45 257 0.0 0.0 1.35 1.53 0.19 95 1012.4
20260502055115 45 250 0.0 0.0 1.34 1.52 0.18 95 1012.3
20260502054614 45 219 0.0 0.0 1.33 1.51 0.17 94 1012.2
20260502054115 45 171 0.0 0.0 1.33 1.51 0.17 94 1012.0
20260502053614 45 274 0.0 0.0 1.34 1.51 0.17 94 1012.0
20260502053115 45 274 0.0 0.0 1.36 1.51 0.17 94 1012.1
20260502052614 45 274 0.0 0.0 1.37 1.50 0.16 94 1012.1
20260502052114 45 274 0.0 0.0 1.38 1.49 0.15 94 1012.1
20260502051615 45 78 0.0 0.0 1.40 1.49 0.15 94 1012.1
20260502051112 45 79 0.0 0.0 1.43 1.49 0.15 93 1012.0
20260502050612 45 257 0.0 0.0 1.43 1.48 0.14 93 1011.9
20260502050113 45 257 0.0 0.0 1.43 1.48 0.14 93 1012.3
20260502045615 45 106 4.0 87.0 0.13 0.18 0.13 93 1012.3
20260502045112 45 106 4.0 87.0 0.13 0.18 0.13 93 1012.2
20260502044612 45 20 0.0 0.0 0.13 0.18 0.13 93 1011.9
20260502044112 45 21 0.0 0.0 0.13 0.18 0.13 93 1011.9
20260502043612 45 338 0.0 0.0 0.12 0.17 0.12 93 1012.2
20260502043110 45 309 0.0 0.0 0.10 0.15 0.10 93 1012.3
20260502042611 45 151 0.0 0.0 0.08 0.13 0.08 93 1012.3
20260502042112 45 162 0.0 0.0 0.06 0.11 0.06 92 1012.6
20260502041611 45 157 0.0 0.0 0.04 0.09 0.04 92 1012.4
20260502041111 45 135 0.0 0.0 0.01 0.06 0.01 92 1012.4
20260502040611 45 135 0.0 0.0 0.01 0.05 0.00 92 1012.3
20260502040111 45 135 0.0 0.0 0.01 0.05 0.00 92 1012.4
20260502035614 45 134 0.0 0.0 0.01 0.05 0.04 91 1012.1
20260502035609 45 134 0.0 0.0 0.01 0.05 0.04 92 1012.3
20260502035224 46 157 0.0 0.0 0.01 0.05 0.04 91 1012.2
20260502034108 46 157 0.0 0.0 0.01 0.05 0.04 91 1012.1
20260502033610 46 157 0.0 0.0 0.02 0.05 0.04 91 1012.2
20260502033109 46 157 0.0 0.0 0.02 0.05 0.04 91 1012.1
20260502032608 46 157 0.0 0.0 0.03 0.05 0.04 90 1012.2
20260502032108 46 157 0.0 0.0 0.05 0.05 0.04 90 1012.4
20260502031609 46 157 0.0 0.0 0.05 0.05 0.04 90 1012.4
20260502031113 46 226 0.0 0.0 0.04 0.04 0.03 89 1012.5
20260502031108 46 202 0.0 0.0 0.05 0.05 0.04 90 1012.4
20260502030109 46 224 0.0 0.0 0.04 0.04 0.03 88 1012.6
20260502025610 46 274 0.0 0.0 0.04 0.04 0.03 87 1012.6
20260502025107 46 274 0.0 0.0 0.04 0.04 0.03 87 1012.6
20260502024607 47 274 0.0 0.0 0.04 0.04 0.03 86 1012.6
20260502024108 47 274 0.0 0.0 0.04 0.04 0.03 85 1012.6
20260502023606 47 274 0.0 0.0 0.03 0.03 0.02 84 1012.6
20260502023106 47 274 0.0 0.0 0.03 0.03 0.02 83 1012.7
20260502022609 47 317 0.0 0.0 0.02 0.02 0.01 80 1012.6
20260502022108 48 337 0.0 0.0 0.00 0.00 0.00 80 1012.6
20260502021611 48 220 0.0 0.0 0.00 0.00 0.00 76 1012.4
20260502021606 48 337 0.0 0.0 0.00 0.00 0.00 78 1012.5
20260502020606 48 220 0.0 0.0 0.00 0.00 0.00 76 1012.3
20260502020106 48 313 0.0 0.0 0.00 0.00 0.00 76 1012.2
20260502015611 48 313 0.0 0.0 0.00 0.00 0.00 75 1012.2
20260502015607 48 313 0.0 0.0 0.00 0.00 0.00 76 1012.2
20260502014611 48 292 0.0 0.0 0.00 0.00 0.00 75 1012.1
20260502014105 48 292 0.0 0.0 0.00 0.00 0.00 76 1012.0
20260502013604 48 274 0.0 0.0 0.00 0.00 0.00 75 1012.1
20260502013109 48 274 0.0 0.0 0.00 0.00 0.00 75 1012.1
20260502013105 48 274 0.0 0.0 0.00 0.00 0.00 75 1012.1
20260502012105 48 330 0.0 0.0 0.00 0.00 0.00 74 1012.2
20260502011609 49 330 0.0 0.0 0.00 0.00 0.00 71 1012.1
20260502011605 49 330 0.0 0.0 0.00 0.00 0.00 73 1012.1
20260502010609 49 330 0.0 0.0 0.00 0.00 0.00 70 1011.9
20260502010603 49 330 0.0 0.0 0.00 0.00 0.00 70 1012.0
20260502005605 49 330 0.0 0.0 0.00 0.00 0.00 69 1012.0
20260502005104 49 330 0.0 0.0 0.00 0.00 0.00 68 1011.9
20260502004603 50 330 0.0 0.0 0.00 0.00 0.00 67 1011.9
20260502004104 50 344 0.0 0.0 0.00 0.00 0.00 67 1011.9
20260502003603 50 345 0.0 0.0 0.00 0.00 0.00 66 1012.0
20260502003103 50 345 0.0 0.0 0.00 0.00 0.00 65 1011.9
20260502002603 50 345 0.0 0.0 0.00 0.00 0.00 65 1011.8
20260502002104 51 345 0.0 0.0 0.00 0.00 0.00 64 1011.7
20260502001603 51 345 0.0 0.0 0.00 0.00 0.00 62 1011.6
20260502001103 51 345 0.0 0.0 0.00 0.00 0.00 62 1011.6
20260502000603 52 345 0.0 0.0 0.00 0.00 0.00 61 1011.5
20260502000101 52 345 0.0 0.0 0.00 0.00 0.00 61 1011.5
20260501235601 52 345 0.0 0.0 0.00 0.00 0.00 61 1011.5
20260501235102 53 298 0.0 0.0 0.00 0.00 0.00 61 1011.5
20260501234602 53 293 0.0 0.0 0.00 0.00 0.00 61 1011.5
20260501234101 53 245 0.0 0.0 0.00 0.00 0.00 59 1011.5
20260501233601 53 276 0.0 0.0 0.00 0.00 0.00 59 1011.5
20260501233102 53 241 0.0 0.0 0.00 0.00 0.00 58 1011.3
20260501232601 53 261 0.0 0.0 0.00 0.00 0.00 58 1011.2
20260501232101 53 257 0.0 0.0 0.00 0.00 0.00 58 1011.3
20260501231601 53 265 0.0 0.0 0.00 0.00 0.00 57 1011.3
20260501231101 53 257 0.0 0.0 0.00 0.00 0.00 57 1011.3
20260501230600 53 44 0.0 0.0 0.00 0.00 0.00 57 1011.3
20260501230101 54 80 0.0 0.0 0.00 0.00 0.00 57 1011.3
20260501225600 54 333 0.0 0.0 0.00 0.00 0.00 58 1011.3
20260501225059 54 255 0.0 0.0 0.00 0.00 0.00 58 1011.2
20260501224600 54 48 0.0 0.0 0.00 0.00 0.00 56 1011.1
20260501224059 54 66 0.0 0.0 0.00 0.00 0.00 56 1011.2
20260501223605 54 286 0.0 0.0 0.00 0.00 0.00 55 1011.2
20260501223600 54 357 0.0 0.0 0.00 0.00 0.00 55 1011.1
20260501223213 55 355 0.0 0.0 0.00 0.00 0.00 54 1011.1
20260501222715 55 262 0.0 0.0 0.00 0.00 0.00 54 1011.1
20260501221559 55 252 0.0 1.0 0.00 0.00 0.00 53 1011.2
20260501221105 56 306 0.0 0.0 0.00 0.00 0.00 52 1011.1
20260501221100 55 23 0.0 1.0 0.00 0.00 0.00 52 1011.1
20260501220057 56 231 0.0 0.0 0.00 0.00 0.00 51 1011.1
20260501215557 56 235 0.0 0.0 0.00 0.00 0.00 50 1011.0
20260501215057 56 78 0.0 0.0 0.00 0.00 0.00 50 1010.9
20260501214558 56 247 0.0 0.0 0.00 0.00 0.00 51 1010.9
20260501214057 56 265 0.0 0.0 0.00 0.00 0.00 50 1010.8
20260501213558 56 262 0.0 0.0 0.00 0.00 0.00 50 1010.8
20260501213056 57 288 0.0 0.0 0.00 0.00 0.00 48 1010.7
20260501212558 57 16 0.0 0.0 0.00 0.00 0.00 48 1010.7
20260501212057 57 231 0.0 7.0 0.00 0.00 0.00 46 1010.5
20260501211555 58 268 0.0 7.0 0.00 0.00 0.00 45 1010.4
20260501211055 58 278 0.0 0.0 0.00 0.00 0.00 44 1010.3
20260501210557 58 18 0.0 0.0 0.00 0.00 0.00 45 1010.3
20260501210105 58 213 0.0 0.0 0.00 0.00 0.00 44 1010.2
20260501210056 58 334 0.0 0.0 0.00 0.00 0.00 45 1010.2
20260501205558 58 42 0.0 0.0 0.00 0.00 0.00 42 1010.2
20260501205221 58 358 0.0 0.0 0.00 0.00 0.00 43 1010.3
20260501205057 58 262 0.0 0.0 0.00 0.00 0.00 46 1010.2
20260501203555 58 4 0.0 0.0 0.00 0.00 0.00 43 1010.1
20260501203208 58 258 0.0 0.0 0.00 0.00 0.00 42 1010.1
20260501202055 58 266 0.0 0.0 0.00 0.00 0.00 42 1010.0
20260501201559 58 265 0.0 0.0 0.00 0.00 0.00 44 1010.1
20260501201555 58 226 0.0 0.0 0.00 0.00 0.00 43 1010.0
20260501200554 58 247 0.0 0.0 0.00 0.00 0.00 43 1010.1
20260501200054 58 7 0.0 0.0 0.00 0.00 0.00 43 1010.1
20260501195554 59 258 0.0 0.0 0.00 0.00 0.00 43 1010.1
20260501195053 59 300 0.0 0.0 0.00 0.00 0.00 42 1010.1
20260501194557 59 54 0.0 0.0 0.00 0.00 0.00 41 1010.2
20260501194553 59 176 0.0 0.0 0.00 0.00 0.00 41 1010.1
20260501194203 59 262 0.0 0.0 0.00 0.00 0.00 44 1010.1
20260501193052 59 276 0.0 0.0 0.00 0.00 0.00 42 1010.2
20260501192555 59 247 0.0 0.0 0.00 0.00 0.00 41 1010.2
20260501192053 60 269 0.0 0.0 0.00 0.00 0.00 42 1010.2
20260501191553 60 240 0.0 0.0 0.00 0.00 0.00 40 1010.1
20260501191053 60 266 0.0 2.0 0.00 0.00 0.00 42 1010.1
20260501190553 59 290 0.0 2.0 0.00 0.00 0.00 41 1010.2
20260501190053 59 199 0.0 0.0 0.00 0.00 0.00 41 1010.2
20260501185553 59 258 0.0 0.0 0.00 0.00 0.00 40 1010.4
20260501185057 60 231 0.0 0.0 0.00 0.00 0.00 42 1010.4
20260501185051 59 264 0.0 0.0 0.00 0.00 0.00 39 1010.4
20260501184706 59 255 0.0 0.0 0.00 0.00 0.00 42 1010.4
20260501184211 59 209 0.0 1.0 0.00 0.00 0.00 38 1010.6
20260501183551 58 337 0.0 0.0 0.00 0.00 0.00 40 1010.5
20260501182551 60 345 0.0 1.0 0.00 0.00 0.00 40 1010.8
20260501182050 60 121 0.0 0.0 0.00 0.00 0.00 43 1010.7
20260501181549 59 255 0.0 0.0 0.00 0.00 0.00 40 1010.7
20260501181049 59 217 0.0 3.0 0.00 0.00 0.00 40 1010.7
20260501180554 59 299 0.0 1.0 0.00 0.00 0.00 39 1010.8
20260501180550 59 255 0.0 3.0 0.00 0.00 0.00 38 1010.8
20260501175550 59 1 0.0 0.0 0.00 0.00 0.00 41 1010.8
20260501175057 58 265 0.0 0.0 0.00 0.00 0.00 42 1010.8
20260501175053 58 228 0.0 0.0 0.00 0.00 0.00 37 1010.9
20260501174050 58 116 0.0 0.0 0.00 0.00 0.00 41 1010.9
20260501173548 58 245 0.0 1.0 0.00 0.00 0.00 43 1011.0
20260501173053 58 28 0.0 1.0 0.00 0.00 0.00 41 1011.0
20260501173049 58 282 0.0 1.0 0.00 0.00 0.00 39 1011.0
20260501172049 58 357 0.0 3.0 0.00 0.00 0.00 42 1011.3
20260501171553 59 319 0.0 0.0 0.00 0.00 0.00 39 1011.3
20260501171548 58 295 0.0 3.0 0.00 0.00 0.00 39 1011.3
20260501170547 59 283 0.0 0.0 0.00 0.00 0.00 42 1011.2
20260501170048 59 169 0.0 0.0 0.00 0.00 0.00 42 1011.1
20260501165548 58 221 0.0 0.0 0.00 0.00 0.00 41 1011.2
20260501165051 57 295 0.0 2.0 0.00 0.00 0.00 42 1011.6
20260501165047 58 231 0.0 2.0 0.00 0.00 0.00 42 1011.5
20260501164047 57 324 0.0 1.0 0.00 0.00 0.00 41 1011.7
20260501163547 57 238 0.0 0.0 0.00 0.00 0.00 42 1011.7
20260501163047 56 289 0.0 0.0 0.00 0.00 0.00 45 1011.8
20260501162547 56 79 0.0 0.0 0.00 0.00 0.00 41 1011.8
20260501162046 56 324 0.0 0.0 0.00 0.00 0.00 45 1011.9
20260501161547 56 329 0.0 6.0 0.00 0.00 0.00 42 1011.9
20260501161046 55 329 0.0 6.0 0.00 0.00 0.00 41 1012.0
20260501160545 55 76 0.0 0.0 0.00 0.00 0.00 41 1012.0
20260501160050 56 324 0.0 0.0 0.00 0.00 0.00 41 1012.1
20260501160046 55 343 0.0 0.0 0.00 0.00 0.00 42 1012.1
20260501155658 56 1 0.0 0.0 0.00 0.00 0.00 45 1012.1
20260501154546 56 45 0.0 0.0 0.00 0.00 0.00 41 1012.1
20260501154046 56 355 0.0 3.0 0.00 0.00 0.00 43 1012.1
20260501153546 56 290 0.0 3.0 0.00 0.00 0.00 45 1012.0
20260501153044 56 209 0.0 1.0 0.00 0.00 0.00 42 1012.1
20260501152544 55 259 0.0 1.0 0.00 0.00 0.00 44 1012.2
20260501152044 55 248 0.0 3.0 0.00 0.00 0.00 46 1012.2
20260501151549 55 299 0.0 1.0 0.00 0.00 0.00 42 1012.5
20260501151545 55 235 0.0 3.0 0.00 0.00 0.00 44 1012.3
20260501150545 55 252 0.0 0.0 0.00 0.00 0.00 46 1012.4
20260501150044 55 317 0.0 0.0 0.00 0.00 0.00 47 1012.4
20260501145548 54 264 0.0 3.0 0.00 0.00 0.00 46 1012.4
20260501145543 55 269 0.0 0.0 0.00 0.00 0.00 51 1012.4
20260501144551 53 271 0.0 0.0 0.00 0.00 0.00 46 1012.5
20260501144543 54 23 0.0 3.0 0.00 0.00 0.00 44 1012.4
20260501144044 54 310 0.0 1.0 0.00 0.00 0.00 46 1012.4
20260501143658 53 278 0.0 1.0 0.00 0.00 0.00 48 1012.5
20260501142543 53 331 0.0 1.0 0.00 0.00 0.00 45 1012.5
20260501142042 53 7 0.0 0.0 0.00 0.00 0.00 48 1012.5
20260501141542 52 240 0.0 0.0 0.00 0.00 0.00 45 1012.4
20260501141043 52 75 0.0 0.0 0.00 0.00 0.00 49 1012.6
20260501140543 52 330 0.0 5.0 0.00 0.00 0.00 49 1012.5
20260501140042 52 99 0.0 5.0 0.00 0.00 0.00 47 1012.5
20260501135541 52 71 0.0 0.0 0.00 0.00 0.00 53 1012.6